owner,sensor,date,latitude,longitude,vertical_datum,sea_water_practical_salinity,qcFlag 
DISL,ioos:station:DISL:DISL:1,2017-07-01T00:00:00Z,30.2513,-88.0778,2.15,3.1,1111122 
DISL,ioos:station:DISL:DISL:1,2017-07-01T00:30:00Z,30.2513,-88.0778,2.14,3.48,1111122 
DISL,ioos:station:DISL:DISL:1,2017-07-01T01:00:00Z,30.2513,-88.0778,2.117,3.39,1111122 
DISL,ioos:station:DISL:DISL:1,2017-07-01T01:30:00Z,30.2513,-88.0778,2.114,3.38,1111122 
DISL,ioos:station:DISL:DISL:1,2017-07-01T02:00:00Z,30.2513,-88.0778,2.107,3.27,1111122 
DISL,ioos:station:DISL:DISL:1,2017-07-01T02:30:00Z,30.2513,-88.0778,2.109,3.21,1111122 
DISL,ioos:station:DISL:DISL:1,2017-07-01T03:00:00Z,30.2513,-88.0778,2.101,3.06,1111122 
DISL,ioos:station:DISL:DISL:1,2017-07-01T03:30:00Z,30.2513,-88.0778,2.091,3.07,1111122 
DISL,ioos:station:DISL:DISL:1,2017-07-01T04:00:00Z,30.2513,-88.0778,2.091,2.9,1111122 
DISL,ioos:station:DISL:DISL:1,2017-07-01T04:30:00Z,30.2513,-88.0778,2.097,2.44,1111122 
DISL,ioos:station:DISL:DISL:1,2017-07-01T05:00:00Z,30.2513,-88.0778,2.088,2.41,1111122 
DISL,ioos:station:DISL:DISL:1,2017-07-01T05:30:00Z,30.2513,-88.0778,2.109,2.29,1111122 
DISL,ioos:station:DISL:DISL:1,2017-07-01T06:00:00Z,30.2513,-88.0778,2.121,4.01,1111122 
DISL,ioos:station:DISL:DISL:1,2017-07-01T06:30:00Z,30.2513,-88.0778,2.131,4.73,1111122 
DISL,ioos:station:DISL:DISL:1,2017-07-01T07:00:00Z,30.2513,-88.0778,2.138,4.46,1111122 
DISL,ioos:station:DISL:DISL:1,2017-07-01T07:30:00Z,30.2513,-88.0778,2.101,2.67,1111122 
DISL,ioos:station:DISL:DISL:1,2017-07-01T08:00:00Z,30.2513,-88.0778,2.181,2.84,1111122 
DISL,ioos:station:DISL:DISL:1,2017-07-01T08:30:00Z,30.2513,-88.0778,2.195,2.95,1111122 
DISL,ioos:station:DISL:DISL:1,2017-07-01T09:00:00Z,30.2513,-88.0778,2.192,3.17,1111122 
DISL,ioos:station:DISL:DISL:1,2017-07-01T09:30:00Z,30.2513,-88.0778,2.226,3.36,1111122 
DISL,ioos:station:DISL:DISL:1,2017-07-01T10:00:00Z,30.2513,-88.0778,2.212,3.46,1111122 
DISL,ioos:station:DISL:DISL:1,2017-07-01T10:30:00Z,30.2513,-88.0778,2.228,3.59,1111122 
DISL,ioos:station:DISL:DISL:1,2017-07-01T11:00:00Z,30.2513,-88.0778,2.222,3.49,1111122 
DISL,ioos:station:DISL:DISL:1,2017-07-01T11:30:00Z,30.2513,-88.0778,2.228,3.62,1111122 
DISL,ioos:station:DISL:DISL:1,2017-07-01T12:00:00Z,30.2513,-88.0778,2.223,3.55,1111122 
DISL,ioos:station:DISL:DISL:1,2017-07-01T12:30:00Z,30.2513,-88.0778,2.237,3.69,1111122 
DISL,ioos:station:DISL:DISL:1,2017-07-01T13:00:00Z,30.2513,-88.0778,2.206,3.67,1111122 
DISL,ioos:station:DISL:DISL:1,2017-07-01T13:30:00Z,30.2513,-88.0778,2.22,3.35,1111122 
DISL,ioos:station:DISL:DISL:1,2017-07-01T14:00:00Z,30.2513,-88.0778,2.202,3.2,1111122 
DISL,ioos:station:DISL:DISL:1,2017-07-01T14:30:00Z,30.2513,-88.0778,2.184,3.34,1111122 
DISL,ioos:station:DISL:DISL:1,2017-07-01T15:00:00Z,30.2513,-88.0778,2.188,3.32,1111122 
DISL,ioos:station:DISL:DISL:1,2017-07-01T15:30:00Z,30.2513,-88.0778,2.2,3.31,1111122 
DISL,ioos:station:DISL:DISL:1,2017-07-01T16:00:00Z,30.2513,-88.0778,2.172,3.27,1111122 
DISL,ioos:station:DISL:DISL:1,2017-07-01T16:30:00Z,30.2513,-88.0778,2.166,3.13,1111122 
DISL,ioos:station:DISL:DISL:1,2017-07-01T17:00:00Z,30.2513,-88.0778,2.135,3.48,1111122 
DISL,ioos:station:DISL:DISL:1,2017-07-01T17:30:00Z,30.2513,-88.0778,2.164,3.49,1111122 
DISL,ioos:station:DISL:DISL:1,2017-07-01T18:00:00Z,30.2513,-88.0778,2.136,3.27,1111122 
DISL,ioos:station:DISL:DISL:1,2017-07-01T18:30:00Z,30.2513,-88.0778,2.119,3.34,1111122 
DISL,ioos:station:DISL:DISL:1,2017-07-01T19:00:00Z,30.2513,-88.0778,2.091,3.12,1111122 
DISL,ioos:station:DISL:DISL:1,2017-07-01T19:30:00Z,30.2513,-88.0778,2.095,3.05,1111122 
DISL,ioos:station:DISL:DISL:1,2017-07-01T20:00:00Z,30.2513,-88.0778,2.092,2.78,1111122 
DISL,ioos:station:DISL:DISL:1,2017-07-01T20:30:00Z,30.2513,-88.0778,2.082,2.58,1111122 
DISL,ioos:station:DISL:DISL:1,2017-07-01T21:00:00Z,30.2513,-88.0778,2.086,2.29,1111122 
DISL,ioos:station:DISL:DISL:1,2017-07-01T21:30:00Z,30.2513,-88.0778,2.073,2.28,1111122 
DISL,ioos:station:DISL:DISL:1,2017-07-01T22:00:00Z,30.2513,-88.0778,2.061,2.22,1111122 
DISL,ioos:station:DISL:DISL:1,2017-07-01T22:30:00Z,30.2513,-88.0778,2.065,2.24,1111122 
DISL,ioos:station:DISL:DISL:1,2017-07-01T23:00:00Z,30.2513,-88.0778,2.054,2.36,1111122 
DISL,ioos:station:DISL:DISL:1,2017-07-01T23:30:00Z,30.2513,-88.0778,2.058,2.26,1111122 
DISL,ioos:station:DISL:DISL:1,2017-07-02T00:00:00Z,30.2513,-88.0778,2.058,2.23,1111122 
DISL,ioos:station:DISL:DISL:1,2017-07-02T00:30:00Z,30.2513,-88.0778,2.062,2.18,1111122 
DISL,ioos:station:DISL:DISL:1,2017-07-02T01:00:00Z,30.2513,-88.0778,2.072,2.21,1111122 
DISL,ioos:station:DISL:DISL:1,2017-07-02T01:30:00Z,30.2513,-88.0778,2.069,2.27,1111122 
DISL,ioos:station:DISL:DISL:1,2017-07-02T02:00:00Z,30.2513,-88.0778,2.07,2.45,1111122 
DISL,ioos:station:DISL:DISL:1,2017-07-02T02:30:00Z,30.2513,-88.0778,2.068,2.55,1111122 
DISL,ioos:station:DISL:DISL:1,2017-07-02T03:00:00Z,30.2513,-88.0778,2.087,2.42,1111122 
DISL,ioos:station:DISL:DISL:1,2017-07-02T03:30:00Z,30.2513,-88.0778,2.08,2.44,1111122 
DISL,ioos:station:DISL:DISL:1,2017-07-02T04:00:00Z,30.2513,-88.0778,2.071,2.44,1111122 
DISL,ioos:station:DISL:DISL:1,2017-07-02T04:30:00Z,30.2513,-88.0778,2.08,2.55,1111122 
DISL,ioos:station:DISL:DISL:1,2017-07-02T05:00:00Z,30.2513,-88.0778,2.077,2.58,1111122 
DISL,ioos:station:DISL:DISL:1,2017-07-02T05:30:00Z,30.2513,-88.0778,2.065,2.68,1111122 
DISL,ioos:station:DISL:DISL:1,2017-07-02T06:00:00Z,30.2513,-88.0778,2.11,2.54,1111122 
DISL,ioos:station:DISL:DISL:1,2017-07-02T06:30:00Z,30.2513,-88.0778,2.144,2.5,1111122 
DISL,ioos:station:DISL:DISL:1,2017-07-02T07:00:00Z,30.2513,-88.0778,2.118,2.28,1111122 
DISL,ioos:station:DISL:DISL:1,2017-07-02T07:30:00Z,30.2513,-88.0778,2.093,2.2,1111122 
DISL,ioos:station:DISL:DISL:1,2017-07-02T08:00:00Z,30.2513,-88.0778,2.117,2.12,1111122 
DISL,ioos:station:DISL:DISL:1,2017-07-02T08:30:00Z,30.2513,-88.0778,2.131,2.18,1111122 
DISL,ioos:station:DISL:DISL:1,2017-07-02T09:00:00Z,30.2513,-88.0778,2.131,2.19,1111122 
DISL,ioos:station:DISL:DISL:1,2017-07-02T09:30:00Z,30.2513,-88.0778,2.142,2.2,1111122 
DISL,ioos:station:DISL:DISL:1,2017-07-02T10:00:00Z,30.2513,-88.0778,2.174,2.18,1111122 
DISL,ioos:station:DISL:DISL:1,2017-07-02T10:30:00Z,30.2513,-88.0778,2.163,2.2,1111122 
DISL,ioos:station:DISL:DISL:1,2017-07-02T11:00:00Z,30.2513,-88.0778,2.158,2.29,1111122 
DISL,ioos:station:DISL:DISL:1,2017-07-02T11:30:00Z,30.2513,-88.0778,2.189,2.7,1111122 
DISL,ioos:station:DISL:DISL:1,2017-07-02T12:00:00Z,30.2513,-88.0778,2.217,2.73,1111122 
DISL,ioos:station:DISL:DISL:1,2017-07-02T12:30:00Z,30.2513,-88.0778,2.225,3.04,1111122 
DISL,ioos:station:DISL:DISL:1,2017-07-02T13:00:00Z,30.2513,-88.0778,2.222,3.19,1111122 
DISL,ioos:station:DISL:DISL:1,2017-07-02T13:30:00Z,30.2513,-88.0778,2.225,3.28,1111122 
DISL,ioos:station:DISL:DISL:1,2017-07-02T14:00:00Z,30.2513,-88.0778,2.229,3.4,1111122 
DISL,ioos:station:DISL:DISL:1,2017-07-02T14:30:00Z,30.2513,-88.0778,2.226,3.42,1111122 
DISL,ioos:station:DISL:DISL:1,2017-07-02T15:00:00Z,30.2513,-88.0778,2.206,3.55,1111122 
DISL,ioos:station:DISL:DISL:1,2017-07-02T15:30:00Z,30.2513,-88.0778,2.189,3.63,1111122 
DISL,ioos:station:DISL:DISL:1,2017-07-02T16:00:00Z,30.2513,-88.0778,2.173,3.63,1111122 
DISL,ioos:station:DISL:DISL:1,2017-07-02T16:30:00Z,30.2513,-88.0778,2.145,3.72,1111122 
DISL,ioos:station:DISL:DISL:1,2017-07-02T17:00:00Z,30.2513,-88.0778,2.141,3.74,1111122 
DISL,ioos:station:DISL:DISL:1,2017-07-02T17:30:00Z,30.2513,-88.0778,2.132,3.77,1111122 
DISL,ioos:station:DISL:DISL:1,2017-07-02T18:00:00Z,30.2513,-88.0778,2.113,3.75,1111122 
DISL,ioos:station:DISL:DISL:1,2017-07-02T18:30:00Z,30.2513,-88.0778,2.087,3.66,1111122 
DISL,ioos:station:DISL:DISL:1,2017-07-02T19:00:00Z,30.2513,-88.0778,2.075,3.34,1111122 
DISL,ioos:station:DISL:DISL:1,2017-07-02T19:30:00Z,30.2513,-88.0778,2.068,2.69,1111122 
DISL,ioos:station:DISL:DISL:1,2017-07-02T20:00:00Z,30.2513,-88.0778,2.059,2.6,1111122 
DISL,ioos:station:DISL:DISL:1,2017-07-02T20:30:00Z,30.2513,-88.0778,2.045,2.68,1111122 
DISL,ioos:station:DISL:DISL:1,2017-07-02T21:00:00Z,30.2513,-88.0778,2.022,2.67,1111122 
DISL,ioos:station:DISL:DISL:1,2017-07-02T21:30:00Z,30.2513,-88.0778,2.011,2.81,1111122 
DISL,ioos:station:DISL:DISL:1,2017-07-02T22:00:00Z,30.2513,-88.0778,2.002,2.93,1111122 
DISL,ioos:station:DISL:DISL:1,2017-07-02T22:30:00Z,30.2513,-88.0778,1.984,3.06,1111122 
DISL,ioos:station:DISL:DISL:1,2017-07-02T23:00:00Z,30.2513,-88.0778,2.006,3.13,1111122 
DISL,ioos:station:DISL:DISL:1,2017-07-02T23:30:00Z,30.2513,-88.0778,2.002,3.19,1111122 
DISL,ioos:station:DISL:DISL:1,2017-07-03T00:00:00Z,30.2513,-88.0778,2.001,3.3,1111122 
DISL,ioos:station:DISL:DISL:1,2017-07-03T00:30:00Z,30.2513,-88.0778,2.009,3.32,1111122 
DISL,ioos:station:DISL:DISL:1,2017-07-03T01:00:00Z,30.2513,-88.0778,2.014,3.01,1111122 
DISL,ioos:station:DISL:DISL:1,2017-07-03T01:30:00Z,30.2513,-88.0778,2.011,2.77,1111122 
DISL,ioos:station:DISL:DISL:1,2017-07-03T02:00:00Z,30.2513,-88.0778,2.012,2.64,1111122 
DISL,ioos:station:DISL:DISL:1,2017-07-03T02:30:00Z,30.2513,-88.0778,2.016,2.48,1111122 
DISL,ioos:station:DISL:DISL:1,2017-07-03T03:00:00Z,30.2513,-88.0778,2.034,2.44,1111122 
DISL,ioos:station:DISL:DISL:1,2017-07-03T03:30:00Z,30.2513,-88.0778,2.031,2.26,1111122 
DISL,ioos:station:DISL:DISL:1,2017-07-03T04:00:00Z,30.2513,-88.0778,2.052,2.63,1111122 
DISL,ioos:station:DISL:DISL:1,2017-07-03T04:30:00Z,30.2513,-88.0778,2.056,2.65,1111122 
DISL,ioos:station:DISL:DISL:1,2017-07-03T05:00:00Z,30.2513,-88.0778,2.047,2.9,1111122 
DISL,ioos:station:DISL:DISL:1,2017-07-03T05:30:00Z,30.2513,-88.0778,2.065,2.81,1111122 
DISL,ioos:station:DISL:DISL:1,2017-07-03T06:00:00Z,30.2513,-88.0778,2.078,2.83,1111122 
DISL,ioos:station:DISL:DISL:1,2017-07-03T06:30:00Z,30.2513,-88.0778,2.075,2.32,1111122 
DISL,ioos:station:DISL:DISL:1,2017-07-03T07:00:00Z,30.2513,-88.0778,2.108,2.13,1111122 
DISL,ioos:station:DISL:DISL:1,2017-07-03T07:30:00Z,30.2513,-88.0778,2.112,2.08,1111122 
DISL,ioos:station:DISL:DISL:1,2017-07-03T08:00:00Z,30.2513,-88.0778,2.125,2.05,1111122 
DISL,ioos:station:DISL:DISL:1,2017-07-03T08:30:00Z,30.2513,-88.0778,2.145,2.05,1111122 
DISL,ioos:station:DISL:DISL:1,2017-07-03T09:00:00Z,30.2513,-88.0778,2.162,2.05,1111122 
DISL,ioos:station:DISL:DISL:1,2017-07-03T09:30:00Z,30.2513,-88.0778,2.19,2.23,1111122 
DISL,ioos:station:DISL:DISL:1,2017-07-03T10:00:00Z,30.2513,-88.0778,2.194,2.48,1111122 
DISL,ioos:station:DISL:DISL:1,2017-07-03T10:30:00Z,30.2513,-88.0778,2.209,2.38,1111122 
DISL,ioos:station:DISL:DISL:1,2017-07-03T11:00:00Z,30.2513,-88.0778,2.208,2.84,1111122 
DISL,ioos:station:DISL:DISL:1,2017-07-03T11:30:00Z,30.2513,-88.0778,2.219,3.11,1111122 
DISL,ioos:station:DISL:DISL:1,2017-07-03T12:00:00Z,30.2513,-88.0778,2.24,3.19,1111122 
DISL,ioos:station:DISL:DISL:1,2017-07-03T12:30:00Z,30.2513,-88.0778,2.234,3.33,1111122 
DISL,ioos:station:DISL:DISL:1,2017-07-03T13:00:00Z,30.2513,-88.0778,2.241,3.57,1111122 
DISL,ioos:station:DISL:DISL:1,2017-07-03T13:30:00Z,30.2513,-88.0778,2.248,3.62,1111122 
DISL,ioos:station:DISL:DISL:1,2017-07-03T14:00:00Z,30.2513,-88.0778,2.239,3.59,1111122 
DISL,ioos:station:DISL:DISL:1,2017-07-03T14:30:00Z,30.2513,-88.0778,2.225,3.54,1111122 
DISL,ioos:station:DISL:DISL:1,2017-07-03T15:00:00Z,30.2513,-88.0778,2.204,3.61,1111122 
DISL,ioos:station:DISL:DISL:1,2017-07-03T15:30:00Z,30.2513,-88.0778,2.194,3.74,1111122 
DISL,ioos:station:DISL:DISL:1,2017-07-03T16:00:00Z,30.2513,-88.0778,2.178,3.62,1111122 
DISL,ioos:station:DISL:DISL:1,2017-07-03T16:30:00Z,30.2513,-88.0778,2.158,3.6,1111122 
DISL,ioos:station:DISL:DISL:1,2017-07-03T17:00:00Z,30.2513,-88.0778,2.146,3.81,1111122 
DISL,ioos:station:DISL:DISL:1,2017-07-03T17:30:00Z,30.2513,-88.0778,2.114,3.12,1111122 
DISL,ioos:station:DISL:DISL:1,2017-07-03T18:00:00Z,30.2513,-88.0778,2.086,2.95,1111122 
DISL,ioos:station:DISL:DISL:1,2017-07-03T18:30:00Z,30.2513,-88.0778,2.085,3.14,1111122 
DISL,ioos:station:DISL:DISL:1,2017-07-03T19:00:00Z,30.2513,-88.0778,2.053,2.97,1111122 
DISL,ioos:station:DISL:DISL:1,2017-07-03T19:30:00Z,30.2513,-88.0778,2.038,2.88,1111122 
DISL,ioos:station:DISL:DISL:1,2017-07-03T20:00:00Z,30.2513,-88.0778,2.015,2.86,1111122 
DISL,ioos:station:DISL:DISL:1,2017-07-03T20:30:00Z,30.2513,-88.0778,2.006,2.85,1111122 
DISL,ioos:station:DISL:DISL:1,2017-07-03T21:00:00Z,30.2513,-88.0778,1.991,2.82,1111122 
DISL,ioos:station:DISL:DISL:1,2017-07-03T21:30:00Z,30.2513,-88.0778,1.984,2.79,1111122 
DISL,ioos:station:DISL:DISL:1,2017-07-03T22:00:00Z,30.2513,-88.0778,1.964,2.78,1111122 
DISL,ioos:station:DISL:DISL:1,2017-07-03T22:30:00Z,30.2513,-88.0778,1.952,2.79,1111122 
DISL,ioos:station:DISL:DISL:1,2017-07-03T23:00:00Z,30.2513,-88.0778,1.942,2.75,1111122 
DISL,ioos:station:DISL:DISL:1,2017-07-03T23:30:00Z,30.2513,-88.0778,1.95,2.63,1111122 
DISL,ioos:station:DISL:DISL:1,2017-07-04T00:00:00Z,30.2513,-88.0778,1.945,2.55,1111122 
DISL,ioos:station:DISL:DISL:1,2017-07-04T00:30:00Z,30.2513,-88.0778,1.956,2.46,1111122 
DISL,ioos:station:DISL:DISL:1,2017-07-04T01:00:00Z,30.2513,-88.0778,1.951,2.33,1111122 
DISL,ioos:station:DISL:DISL:1,2017-07-04T01:30:00Z,30.2513,-88.0778,1.981,2.24,1111122 
DISL,ioos:station:DISL:DISL:1,2017-07-04T02:00:00Z,30.2513,-88.0778,1.973,2.14,1111122 
DISL,ioos:station:DISL:DISL:1,2017-07-04T02:30:00Z,30.2513,-88.0778,2.006,1.99,1111122 
DISL,ioos:station:DISL:DISL:1,2017-07-04T03:00:00Z,30.2513,-88.0778,1.992,1.95,1111122 
DISL,ioos:station:DISL:DISL:1,2017-07-04T03:30:00Z,30.2513,-88.0778,2.015,1.99,1111122 
DISL,ioos:station:DISL:DISL:1,2017-07-04T04:00:00Z,30.2513,-88.0778,2.02,1.95,1111122 
DISL,ioos:station:DISL:DISL:1,2017-07-04T04:30:00Z,30.2513,-88.0778,2.022,2.05,1111122 
DISL,ioos:station:DISL:DISL:1,2017-07-04T05:00:00Z,30.2513,-88.0778,2.052,2.06,1111122 
DISL,ioos:station:DISL:DISL:1,2017-07-04T05:30:00Z,30.2513,-88.0778,2.061,2.06,1111122 
DISL,ioos:station:DISL:DISL:1,2017-07-04T06:00:00Z,30.2513,-88.0778,2.082,2.09,1111122 
DISL,ioos:station:DISL:DISL:1,2017-07-04T06:30:00Z,30.2513,-88.0778,2.09,2.09,1111122 
DISL,ioos:station:DISL:DISL:1,2017-07-04T07:00:00Z,30.2513,-88.0778,2.119,2.35,1111122 
DISL,ioos:station:DISL:DISL:1,2017-07-04T07:30:00Z,30.2513,-88.0778,2.138,2.63,1111122 
DISL,ioos:station:DISL:DISL:1,2017-07-04T08:00:00Z,30.2513,-88.0778,2.171,2.77,1111122 
DISL,ioos:station:DISL:DISL:1,2017-07-04T08:30:00Z,30.2513,-88.0778,2.19,2.88,1111122 
DISL,ioos:station:DISL:DISL:1,2017-07-04T09:00:00Z,30.2513,-88.0778,2.207,2.97,1111122 
DISL,ioos:station:DISL:DISL:1,2017-07-04T09:30:00Z,30.2513,-88.0778,2.22,3.1,1111122 
DISL,ioos:station:DISL:DISL:1,2017-07-04T10:00:00Z,30.2513,-88.0778,2.246,3.27,1111122 
DISL,ioos:station:DISL:DISL:1,2017-07-04T10:30:00Z,30.2513,-88.0778,2.243,3.41,1111122 
DISL,ioos:station:DISL:DISL:1,2017-07-04T11:00:00Z,30.2513,-88.0778,2.249,3.65,1111122 
DISL,ioos:station:DISL:DISL:1,2017-07-04T11:30:00Z,30.2513,-88.0778,2.262,3.78,1111122 
DISL,ioos:station:DISL:DISL:1,2017-07-04T12:00:00Z,30.2513,-88.0778,2.272,4.02,1111122 
DISL,ioos:station:DISL:DISL:1,2017-07-04T12:30:00Z,30.2513,-88.0778,2.269,4.1,1111122 
DISL,ioos:station:DISL:DISL:1,2017-07-04T13:00:00Z,30.2513,-88.0778,2.268,4.14,1111122 
DISL,ioos:station:DISL:DISL:1,2017-07-04T13:30:00Z,30.2513,-88.0778,2.285,4.14,1111122 
DISL,ioos:station:DISL:DISL:1,2017-07-04T14:00:00Z,30.2513,-88.0778,2.265,4.15,1111122 
DISL,ioos:station:DISL:DISL:1,2017-07-04T14:30:00Z,30.2513,-88.0778,2.262,4.16,1111122 
DISL,ioos:station:DISL:DISL:1,2017-07-04T15:00:00Z,30.2513,-88.0778,2.25,4.18,1111122 
DISL,ioos:station:DISL:DISL:1,2017-07-04T15:30:00Z,30.2513,-88.0778,2.251,4.18,1111122 
DISL,ioos:station:DISL:DISL:1,2017-07-04T16:00:00Z,30.2513,-88.0778,2.22,4.09,1111122 
DISL,ioos:station:DISL:DISL:1,2017-07-04T16:30:00Z,30.2513,-88.0778,2.195,4.0,1111122 
DISL,ioos:station:DISL:DISL:1,2017-07-04T17:00:00Z,30.2513,-88.0778,2.165,4.01,1111122 
DISL,ioos:station:DISL:DISL:1,2017-07-04T17:30:00Z,30.2513,-88.0778,2.145,3.95,1111122 
DISL,ioos:station:DISL:DISL:1,2017-07-04T18:00:00Z,30.2513,-88.0778,2.1,3.08,1111122 
DISL,ioos:station:DISL:DISL:1,2017-07-04T18:30:00Z,30.2513,-88.0778,2.082,2.58,1111122 
DISL,ioos:station:DISL:DISL:1,2017-07-04T19:00:00Z,30.2513,-88.0778,2.076,2.34,1111122 
DISL,ioos:station:DISL:DISL:1,2017-07-04T19:30:00Z,30.2513,-88.0778,2.043,2.39,1111122 
DISL,ioos:station:DISL:DISL:1,2017-07-04T20:00:00Z,30.2513,-88.0778,2.021,2.52,1111122 
DISL,ioos:station:DISL:DISL:1,2017-07-04T20:30:00Z,30.2513,-88.0778,2.009,2.4,1111122 
DISL,ioos:station:DISL:DISL:1,2017-07-04T21:00:00Z,30.2513,-88.0778,1.993,2.27,1111122 
DISL,ioos:station:DISL:DISL:1,2017-07-04T21:30:00Z,30.2513,-88.0778,1.988,2.17,1111122 
DISL,ioos:station:DISL:DISL:1,2017-07-04T22:00:00Z,30.2513,-88.0778,1.953,2.08,1111122 
DISL,ioos:station:DISL:DISL:1,2017-07-04T22:30:00Z,30.2513,-88.0778,1.973,1.94,1111122 
DISL,ioos:station:DISL:DISL:1,2017-07-04T23:00:00Z,30.2513,-88.0778,1.955,1.9,1111122 
DISL,ioos:station:DISL:DISL:1,2017-07-04T23:30:00Z,30.2513,-88.0778,1.92,1.73,1111122 
DISL,ioos:station:DISL:DISL:1,2017-07-05T00:00:00Z,30.2513,-88.0778,1.924,1.7,1111122 
DISL,ioos:station:DISL:DISL:1,2017-07-05T00:30:00Z,30.2513,-88.0778,1.939,1.67,1111122 
DISL,ioos:station:DISL:DISL:1,2017-07-05T01:00:00Z,30.2513,-88.0778,1.931,1.65,1111122 
DISL,ioos:station:DISL:DISL:1,2017-07-05T01:30:00Z,30.2513,-88.0778,1.926,1.62,1111122 
DISL,ioos:station:DISL:DISL:1,2017-07-05T02:00:00Z,30.2513,-88.0778,1.944,1.64,1111122 
DISL,ioos:station:DISL:DISL:1,2017-07-05T02:30:00Z,30.2513,-88.0778,1.969,1.68,1111122 
DISL,ioos:station:DISL:DISL:1,2017-07-05T03:00:00Z,30.2513,-88.0778,1.981,1.72,1111122 
DISL,ioos:station:DISL:DISL:1,2017-07-05T03:30:00Z,30.2513,-88.0778,1.992,1.73,1111122 
DISL,ioos:station:DISL:DISL:1,2017-07-05T04:00:00Z,30.2513,-88.0778,2.003,1.71,1111122 
DISL,ioos:station:DISL:DISL:1,2017-07-05T04:30:00Z,30.2513,-88.0778,2.036,1.73,1111122 
DISL,ioos:station:DISL:DISL:1,2017-07-05T05:00:00Z,30.2513,-88.0778,2.039,1.73,1111122 
DISL,ioos:station:DISL:DISL:1,2017-07-05T05:30:00Z,30.2513,-88.0778,2.06,1.76,1111122 
DISL,ioos:station:DISL:DISL:1,2017-07-05T06:00:00Z,30.2513,-88.0778,2.073,1.81,1111122 
DISL,ioos:station:DISL:DISL:1,2017-07-05T06:30:00Z,30.2513,-88.0778,2.086,2.15,1111122 
DISL,ioos:station:DISL:DISL:1,2017-07-05T07:00:00Z,30.2513,-88.0778,2.123,2.18,1111122 
DISL,ioos:station:DISL:DISL:1,2017-07-05T07:30:00Z,30.2513,-88.0778,2.127,2.21,1111122 
DISL,ioos:station:DISL:DISL:1,2017-07-05T08:00:00Z,30.2513,-88.0778,2.145,2.42,1111122 
DISL,ioos:station:DISL:DISL:1,2017-07-05T08:30:00Z,30.2513,-88.0778,2.165,2.49,1111122 
DISL,ioos:station:DISL:DISL:1,2017-07-05T09:00:00Z,30.2513,-88.0778,2.211,2.63,1111122 
DISL,ioos:station:DISL:DISL:1,2017-07-05T09:30:00Z,30.2513,-88.0778,2.229,2.67,1111122 
DISL,ioos:station:DISL:DISL:1,2017-07-05T10:00:00Z,30.2513,-88.0778,2.216,2.84,1111122 
DISL,ioos:station:DISL:DISL:1,2017-07-05T10:30:00Z,30.2513,-88.0778,2.251,3.06,1111122 
DISL,ioos:station:DISL:DISL:1,2017-07-05T11:00:00Z,30.2513,-88.0778,2.266,3.29,1111122 
DISL,ioos:station:DISL:DISL:1,2017-07-05T11:30:00Z,30.2513,-88.0778,2.302,3.47,1111122 
DISL,ioos:station:DISL:DISL:1,2017-07-05T12:00:00Z,30.2513,-88.0778,2.312,3.64,1111122 
DISL,ioos:station:DISL:DISL:1,2017-07-05T12:30:00Z,30.2513,-88.0778,2.324,3.89,1111122 
DISL,ioos:station:DISL:DISL:1,2017-07-05T13:00:00Z,30.2513,-88.0778,2.322,4.1,1111122 
DISL,ioos:station:DISL:DISL:1,2017-07-05T13:30:00Z,30.2513,-88.0778,2.332,4.16,1111122 
DISL,ioos:station:DISL:DISL:1,2017-07-05T14:00:00Z,30.2513,-88.0778,2.33,4.22,1111122 
DISL,ioos:station:DISL:DISL:1,2017-07-05T14:30:00Z,30.2513,-88.0778,2.328,4.21,1111122 
DISL,ioos:station:DISL:DISL:1,2017-07-05T15:00:00Z,30.2513,-88.0778,2.315,4.29,1111122 
DISL,ioos:station:DISL:DISL:1,2017-07-05T15:30:00Z,30.2513,-88.0778,2.301,4.3,1111122 
DISL,ioos:station:DISL:DISL:1,2017-07-05T16:00:00Z,30.2513,-88.0778,2.259,4.25,1111122 
DISL,ioos:station:DISL:DISL:1,2017-07-05T16:30:00Z,30.2513,-88.0778,2.26,4.09,1111122 
DISL,ioos:station:DISL:DISL:1,2017-07-05T17:00:00Z,30.2513,-88.0778,2.23,4.06,1111122 
DISL,ioos:station:DISL:DISL:1,2017-07-05T17:30:00Z,30.2513,-88.0778,2.197,3.51,1111122 
DISL,ioos:station:DISL:DISL:1,2017-07-05T18:00:00Z,30.2513,-88.0778,2.17,2.97,1111122 
DISL,ioos:station:DISL:DISL:1,2017-07-05T18:30:00Z,30.2513,-88.0778,2.141,2.37,1111122 
DISL,ioos:station:DISL:DISL:1,2017-07-05T19:00:00Z,30.2513,-88.0778,2.115,2.43,1111122 
DISL,ioos:station:DISL:DISL:1,2017-07-05T19:30:00Z,30.2513,-88.0778,2.093,2.5,1111122 
DISL,ioos:station:DISL:DISL:1,2017-07-05T20:00:00Z,30.2513,-88.0778,2.058,2.62,1111122 
DISL,ioos:station:DISL:DISL:1,2017-07-05T20:30:00Z,30.2513,-88.0778,2.031,2.71,1111122 
DISL,ioos:station:DISL:DISL:1,2017-07-05T21:00:00Z,30.2513,-88.0778,2.013,2.8,1111122 
DISL,ioos:station:DISL:DISL:1,2017-07-05T21:30:00Z,30.2513,-88.0778,1.978,2.77,1111122 
DISL,ioos:station:DISL:DISL:1,2017-07-05T22:00:00Z,30.2513,-88.0778,1.969,2.75,1111122 
DISL,ioos:station:DISL:DISL:1,2017-07-05T22:30:00Z,30.2513,-88.0778,1.961,2.73,1111122 
DISL,ioos:station:DISL:DISL:1,2017-07-05T23:00:00Z,30.2513,-88.0778,1.943,2.71,1111122 
DISL,ioos:station:DISL:DISL:1,2017-07-05T23:30:00Z,30.2513,-88.0778,1.942,2.6,1111122 
DISL,ioos:station:DISL:DISL:1,2017-07-06T00:00:00Z,30.2513,-88.0778,1.931,2.5,1111122 
DISL,ioos:station:DISL:DISL:1,2017-07-06T00:30:00Z,30.2513,-88.0778,1.94,2.49,1111122 
DISL,ioos:station:DISL:DISL:1,2017-07-06T01:00:00Z,30.2513,-88.0778,1.927,2.31,1111122 
DISL,ioos:station:DISL:DISL:1,2017-07-06T01:30:00Z,30.2513,-88.0778,1.931,2.1,1111122 
DISL,ioos:station:DISL:DISL:1,2017-07-06T02:00:00Z,30.2513,-88.0778,1.943,1.79,1111122 
DISL,ioos:station:DISL:DISL:1,2017-07-06T02:30:00Z,30.2513,-88.0778,1.944,1.76,1111122 
DISL,ioos:station:DISL:DISL:1,2017-07-06T03:00:00Z,30.2513,-88.0778,1.96,1.66,1111122 
DISL,ioos:station:DISL:DISL:1,2017-07-06T03:30:00Z,30.2513,-88.0778,1.968,1.74,1111122 
DISL,ioos:station:DISL:DISL:1,2017-07-06T04:00:00Z,30.2513,-88.0778,1.994,2.13,1111122 
DISL,ioos:station:DISL:DISL:1,2017-07-06T04:30:00Z,30.2513,-88.0778,2.003,2.18,1111122 
DISL,ioos:station:DISL:DISL:1,2017-07-06T05:00:00Z,30.2513,-88.0778,2.015,2.1,1111122 
DISL,ioos:station:DISL:DISL:1,2017-07-06T05:30:00Z,30.2513,-88.0778,2.028,2.23,1111122 
DISL,ioos:station:DISL:DISL:1,2017-07-06T06:00:00Z,30.2513,-88.0778,2.054,2.22,1111122 
DISL,ioos:station:DISL:DISL:1,2017-07-06T06:30:00Z,30.2513,-88.0778,2.054,2.5,1111122 
DISL,ioos:station:DISL:DISL:1,2017-07-06T07:00:00Z,30.2513,-88.0778,2.092,2.7,1111122 
DISL,ioos:station:DISL:DISL:1,2017-07-06T07:30:00Z,30.2513,-88.0778,2.117,2.71,1111122 
DISL,ioos:station:DISL:DISL:1,2017-07-06T08:00:00Z,30.2513,-88.0778,2.14,2.79,1111122 
DISL,ioos:station:DISL:DISL:1,2017-07-06T08:30:00Z,30.2513,-88.0778,2.167,2.8,1111122 
DISL,ioos:station:DISL:DISL:1,2017-07-06T09:00:00Z,30.2513,-88.0778,2.174,2.8,1111122 
DISL,ioos:station:DISL:DISL:1,2017-07-06T09:30:00Z,30.2513,-88.0778,2.2,2.86,1111122 
DISL,ioos:station:DISL:DISL:1,2017-07-06T10:00:00Z,30.2513,-88.0778,2.233,2.89,1111122 
DISL,ioos:station:DISL:DISL:1,2017-07-06T10:30:00Z,30.2513,-88.0778,2.264,2.9,1111122 
DISL,ioos:station:DISL:DISL:1,2017-07-06T11:00:00Z,30.2513,-88.0778,2.288,2.91,1111122 
DISL,ioos:station:DISL:DISL:1,2017-07-06T11:30:00Z,30.2513,-88.0778,2.309,3.11,1111122 
DISL,ioos:station:DISL:DISL:1,2017-07-06T12:00:00Z,30.2513,-88.0778,2.318,3.24,1111122 
DISL,ioos:station:DISL:DISL:1,2017-07-06T12:30:00Z,30.2513,-88.0778,2.342,3.33,1111122 
DISL,ioos:station:DISL:DISL:1,2017-07-06T13:00:00Z,30.2513,-88.0778,2.35,3.36,1111122 
DISL,ioos:station:DISL:DISL:1,2017-07-06T13:30:00Z,30.2513,-88.0778,2.342,3.56,1111122 
DISL,ioos:station:DISL:DISL:1,2017-07-06T14:00:00Z,30.2513,-88.0778,2.345,3.69,1111122 
DISL,ioos:station:DISL:DISL:1,2017-07-06T14:30:00Z,30.2513,-88.0778,2.333,3.77,1111122 
DISL,ioos:station:DISL:DISL:1,2017-07-06T15:00:00Z,30.2513,-88.0778,2.339,3.83,1111122 
DISL,ioos:station:DISL:DISL:1,2017-07-06T15:30:00Z,30.2513,-88.0778,2.311,3.86,1111122 